Change the Weather History Date:

Thursday, August 28, 2014

  Actual Average (PABR) Record (PABR)
Temperature  
Mean Temperature 40 °F 37 °F  
Max Temperature 48 °F 42 °F 58 °F (1959)
Min Temperature 33 °F 33 °F 21 °F (1922)
Degree Days  
Heating Degree Days 24 28  
Month to date heating degree days 723  
Since 1 June heating degree days 2350  
Since 1 July heating degree days 1470  
Cooling Degree Days 0    
Month to date cooling degree days  
Year to date cooling degree days  
Since 1 June cooling degree days  
Moisture  
Dew Point 35 °F    
Average Humidity 90    
Maximum Humidity 100    
Minimum Humidity 65    
Precipitation  
Precipitation 0.01 in 0.04 in 0.18 in (2011)
Month to date precipitation 0.96  
Year to date precipitation 2.96  
Snow  
Snow 0.00 in 0.00 in 0.40 in (1967)
Month to date snowfall 0.7  
Since 1 June snowfall 1.6  
Since 1 July snowfall 0.9  
Snow Depth -    
Sea Level Pressure  
Sea Level Pressure 29.54 in    
Wind  
Wind Speed 12 mph (WNW)    
Max Wind Speed 22 mph    
Max Gust Speed 24 mph    
Visibility 8 miles    
Events Rain , Snow    
T = Trace of Precipitation, MM = Missing Value Source: NWS Daily Summary

Daily Weather History Graph

Daily Weather History Graph

Search for Another Location

Airport or City:

Trip Planner

Search our weather history database for the weather conditions in past years. The results will help you decide how hot, cold, wet, or windy it might be!

Date:

Astronomy

Aug. 28, 2014 Rise Set
Actual Time 6:25 AM AKDT 10:33 PM AKDT
Civil Twilight 5:00 AM AKDT 11:55 PM AKDT
Nautical Twilight Sun does not rise 1:58 AM AKDT
Astronomical Twilight Sun does not rise Sun does not rise
Moon 11:40 AM AKDT (8/28) 9:41 PM AKDT (8/28)
Length of Visible Light 18h 55m
Length of Day
16h 07m
Waxing Crescent, 9% of the Moon is Illuminated
Aug 28
Waxing Crescent
Sep 2
First Quarter
Sep 8
Full
Sep 15
Last Quarter
Sep 23
New

Hourly Weather History & Observations

Time (AKDT) Temp. Windchill Dew Point Humidity Pressure Visibility Wind Dir Wind Speed Gust Speed Precip Events Conditions
12:56 AM 46.4 °F 41.5 °F 44.6 °F 93% 29.44 in 10.0 mi SSW 10.4 mph - N/A   Overcast
1:42 AM 48.2 °F - 46.4 °F 93% 29.43 in 10.0 mi WSW 8.1 mph - 0.00 in   Overcast
1:56 AM 47.8 °F - 45.9 °F 93% 29.44 in 10.0 mi SW 9.2 mph - 0.00 in   Overcast
2:17 AM 48.2 °F - 46.4 °F 93% 29.43 in 10.0 mi SW 9.2 mph - N/A   Overcast
2:56 AM 48.9 °F - 46.9 °F 93% 29.43 in 10.0 mi WSW 10.4 mph - N/A   Overcast
3:56 AM 46.4 °F 42.4 °F 46.4 °F 100% 29.41 in 10.0 mi SSW 8.1 mph - N/A Rain Light Rain
4:38 AM 42.8 °F 34.5 °F 42.8 °F 100% 29.42 in 4.0 mi NNW 18.4 mph 21.9 mph 0.00 in Rain Light Rain
4:45 AM 41.0 °F 32.2 °F 39.2 °F 93% 29.42 in 2.5 mi NW 18.4 mph - 0.00 in Rain Light Rain
4:56 AM 38.8 °F 28.8 °F 38.8 °F 100% 29.44 in 3.0 mi NW 20.7 mph - 0.00 in Rain Light Rain
5:56 AM 36.9 °F 26.5 °F 36.0 °F 97% 29.47 in 2.5 mi NNW 19.6 mph - 0.01 in Rain Light Rain
6:18 AM 35.6 °F 24.8 °F 35.6 °F 100% 29.47 in 6.0 mi NW 19.6 mph 23.0 mph 0.00 in Rain Light Rain
6:56 AM 36.0 °F 24.7 °F 34.9 °F 96% 29.50 in 10.0 mi NNW 21.9 mph - 0.00 in Rain Light Rain
7:56 AM 34.9 °F 23.3 °F 34.0 °F 97% 29.53 in 5.0 mi NNW 21.9 mph - 0.00 in Rain Light Rain
8:04 AM 33.8 °F 22.2 °F 33.8 °F 100% 29.52 in 6.0 mi NNW 20.7 mph - 0.00 in Rain Light Rain
8:21 AM 33.8 °F 22.2 °F 33.8 °F 100% 29.53 in 2.5 mi NNW 20.7 mph - 0.00 in Rain Light Rain
8:25 AM 33.8 °F 22.5 °F 33.8 °F 100% 29.53 in 3.0 mi NNW 19.6 mph - 0.00 in Snow Light Snow
8:33 AM 33.8 °F 22.8 °F 33.8 °F 100% 29.53 in 4.0 mi NW 18.4 mph - 0.00 in Snow Light Snow
8:56 AM 34.0 °F 22.7 °F 32.0 °F 92% 29.56 in 3.0 mi NNW 19.6 mph 24.2 mph 0.00 in Snow Light Snow
9:16 AM 33.8 °F 22.8 °F 32.0 °F 93% 29.55 in 4.0 mi NNW 18.4 mph - 0.00 in Snow Light Snow
9:25 AM 33.8 °F 22.8 °F 32.0 °F 93% 29.55 in 10.0 mi NNW 18.4 mph - 0.00 in Rain Light Rain
9:56 AM 35.6 °F 26.2 °F 32.0 °F 87% 29.56 in 10.0 mi NW 15.0 mph - N/A   Overcast
10:13 AM 35.6 °F 26.2 °F 30.2 °F 81% 29.56 in 10.0 mi NNW 15.0 mph - N/A   Overcast
10:56 AM 34.9 °F 25.3 °F 30.0 °F 82% 29.59 in 10.0 mi NW 15.0 mph - N/A   Overcast
11:56 AM 36.0 °F 28.5 °F 30.0 °F 79% 29.60 in 10.0 mi NW 10.4 mph - N/A   Overcast
12:26 PM 35.6 °F 30.7 °F 32.0 °F 87% 29.59 in 10.0 mi NW 5.8 mph - 0.00 in   Overcast
12:56 PM 37.4 °F 31.4 °F 30.2 °F 75% 29.59 in 10.0 mi WNW 8.1 mph - N/A   Overcast
1:18 PM 35.6 °F 28.0 °F 32.0 °F 87% 29.59 in 5.0 mi WNW 10.4 mph - 0.00 in Rain Light Rain
1:36 PM 35.6 °F 28.0 °F 33.8 °F 93% 29.59 in 10.0 mi West 10.4 mph - 0.00 in   Overcast
1:56 PM 36.9 °F 29.6 °F 32.9 °F 86% 29.61 in 10.0 mi West 10.4 mph - 0.00 in   Overcast
2:19 PM 35.6 °F 28.6 °F 33.8 °F 93% 29.60 in 8.0 mi West 9.2 mph - 0.00 in Rain Light Rain
2:38 PM 35.6 °F 29.9 °F 33.8 °F 93% 29.60 in 10.0 mi West 6.9 mph - 0.00 in   Overcast
2:47 PM 35.6 °F 29.9 °F 33.8 °F 93% 29.60 in 10.0 mi West 6.9 mph - 0.00 in Rain Light Rain
2:56 PM 36.0 °F 31.1 °F 34.0 °F 93% 29.62 in 10.0 mi WSW 5.8 mph - 0.00 in Rain Light Rain
3:14 PM 37.4 °F 33.8 °F 33.8 °F 87% 29.60 in 10.0 mi SW 4.6 mph - 0.00 in   Mostly Cloudy
3:56 PM 37.4 °F 34.9 °F 33.8 °F 87% 29.60 in 10.0 mi Variable 3.5 mph - N/A   Overcast
4:25 PM 37.4 °F 32.1 °F 32.0 °F 81% 29.59 in 10.0 mi NW 6.9 mph - N/A   Overcast
4:34 PM 37.4 °F 32.8 °F 32.0 °F 81% 29.59 in 10.0 mi NW 5.8 mph - N/A   Overcast
4:56 PM 38.8 °F 36.5 °F 31.1 °F 74% 29.60 in 10.0 mi West 3.5 mph - N/A   Overcast
5:56 PM 41.0 °F 35.8 °F 30.0 °F 65% 29.60 in 10.0 mi SW 8.1 mph - N/A   Overcast
6:56 PM 39.2 °F 33.6 °F 32.0 °F 75% 29.57 in 10.0 mi South 8.1 mph - N/A   Overcast
7:56 PM 39.9 °F 33.9 °F 32.9 °F 76% 29.58 in 10.0 mi SSW 9.2 mph - N/A   Overcast
8:23 PM 39.2 °F 32.0 °F 35.6 °F 87% 29.56 in 6.0 mi WNW 11.5 mph - 0.00 in Rain Light Rain
8:56 PM 38.8 °F 33.8 °F 34.9 °F 86% 29.58 in 10.0 mi WSW 6.9 mph - 0.00 in Rain Light Rain
9:23 PM 37.4 °F 33.8 °F 35.6 °F 93% 29.56 in 10.0 mi SW 4.6 mph - 0.00 in   Overcast
9:56 PM 37.4 °F 32.1 °F 35.6 °F 93% 29.56 in 10.0 mi SW 6.9 mph - N/A   Overcast
10:56 PM 37.9 °F 30.9 °F 36.0 °F 93% 29.57 in 10.0 mi SW 10.4 mph - N/A   Overcast
11:16 PM 37.4 °F 30.3 °F 35.6 °F 93% 29.55 in 10.0 mi WNW 10.4 mph - 0.00 in Rain Light Rain
11:39 PM 37.4 °F 30.8 °F 35.6 °F 93% 29.55 in 10.0 mi NNW 9.2 mph - 0.00 in Rain Light Rain
11:49 PM 37.4 °F 30.8 °F 35.6 °F 93% 29.55 in 10.0 mi NNW 9.2 mph - 0.00 in Rain Light Rain
11:56 PM 36.9 °F 30.1 °F 34.9 °F 93% 29.57 in 8.0 mi NNW 9.2 mph - 0.00 in Rain Light Rain